Location: ?????�????
(48.5765°N, 34.0902°E)
Time: 14:54:17
(UTC+00:00)

Daily predictions for brighter satellites

Satellite Brightness Start Highest point End
(mag) Time Altitude Azimuth Time Altitude Azimuth Time Altitude Azimuth
Meteor 2-10 Rocket 4.1 18:17:46 10° NNW 18:22:50 62° W 18:28:04 10° S
NOSS 3-3 (A) 4.3 18:17:34 10° S 18:22:59 41° ESE 18:29:00 10° NE
NOSS 3-3 (C) 4.3 18:17:41 10° S 18:23:05 40° ESE 18:29:06 10° NE
SPOT 1/Viking Rocket 4.0 18:18:50 10° SE 18:23:45 47° ENE 18:28:42 10° N
ATLAS 5 CENTAUR R/B 4.0 18:25:12 10° W 18:27:38 19° NW 18:29:19 10° NNE
Cosmos 2333 Rocket 2.5 18:23:17 10° S 18:28:41 47° ESE 18:34:09 10° NE
ATLAS 5 CENTAUR R/B 1.8 18:28:26 10° SW 18:32:36 76° NW 18:37:21 10° NE
SL-16 R/B 4.0 18:28:54 10° WSW 18:34:07 37° NW 18:39:23 10° NNE
Alouette 2 Rocket 3.8 18:34:41 10° NNW 18:38:36 87° W 18:44:04 10° S
ATLAS 2AS CENTAUR R/B 3.7 18:32:17 10° NW 18:39:44 47° NE 18:46:37 10° ESE
Cosmos 1844 Rocket 3.4 18:34:41 10° NW 18:40:03 50° WSW 18:45:24 10° S
Landsat 7 3.9 18:35:36 10° SSE 18:40:20 76° ENE 18:45:07 10° N
Atlas Centaur 2 4.2 18:38:51 10° SSW 18:40:36 11° S 18:42:27 10° SSE
Cosmos 2278 Rocket 2.9 18:37:32 10° NNW 18:43:00 45° NE 18:48:24 10° SE
Gblst 52 Del rocket 4.3 18:38:00 10° WNW 18:43:37 80° SSW 18:49:48 10° ESE
SPOT 5 3.4 18:41:50 10° SE 18:46:31 44° ENE 18:51:00 10° N
Resurs 01 Rocket 2.8 18:43:31 10° S 18:47:41 41° W 18:51:53 10° NNW
ATLAS CENTAUR R/B 1.1 18:46:44 10° NW 18:50:26 75° SW 18:53:43 12° SSE
Cosmos 1758 Rocket 4.3 18:48:02 10° SSW 18:52:27 57° WNW 18:56:54 10° N
USA 215 3.9 18:48:14 10° ENE 18:53:58 31° SE 18:59:39 10° S
SAR-Lupe-2 3.9 18:51:09 10° NNE 18:54:39 47° E 18:58:07 10° S
Cosmos 1538 Rocket 4.1 18:49:40 10° S 18:54:56 62° ESE 19:00:12 10° NNE
Cosmos 2084 3.7 18:50:38 10° NW 18:55:05 71° SW 18:59:03 13° SSE
Cosmos 1315 Rocket 2.9 18:57:22 10° N 19:01:30 76° ENE 19:05:14 12° SSE
ERS-1 Rocket 3.1 18:56:43 11° SSE 19:01:31 70° ENE 19:06:33 10° N
Cosmos 773 Rocket 4.2 18:56:54 10° SSW 19:02:12 80° WNW 19:07:32 10° NNE
Meteor 1-11 4.3 19:00:03 10° S 19:05:41 90° SE 19:11:27 10° NNE
USA 245 4.1 19:05:30 10° S 19:08:58 51° W 19:13:25 10° NNW
Cosmos 1953 Rocket 4.1 19:11:47 10° SSW 19:16:02 58° WNW 19:20:20 10° N
DELTA 2 R/B (1) 4.4 19:11:46 10° SW 19:16:28 29° SSE 19:21:12 10° ESE
CREW DRAGON DEMO-1 DEB 3.6 19:14:34 10° SSW 19:17:20 31° SE 19:20:06 10° E
Cosmos 2074 Rocket 4.1 19:15:38 11° S 19:21:35 60° E 19:27:42 10° NNE
Cosmos 2181 Rocket 4.2 19:15:19 10° NNW 19:21:38 72° W 19:27:48 10° S
Cosmos 1842 Rocket 3.5 19:19:37 10° N 19:24:01 84° E 19:27:22 17° SSE
Terra 1.8 19:23:45 17° SSE 19:27:28 76° ENE 19:32:15 10° N
USA 267 3.7 19:21:11 10° ESE 19:27:37 62° NNE 19:34:05 10° NW
Lacrosse 5 rocket 3.4 19:24:55 10° NW 19:28:28 26° N 19:31:51 10° ENE
TSX-5 3.7 19:26:25 10° NNW 19:29:58 87° SW 19:32:49 20° SSE
Cosmos 1825 3.9 19:28:44 15° ESE 19:30:05 18° E 19:32:44 10° NE
NOSS 0 Rocket 4.0 19:25:36 10° SSW 19:31:37 62° ESE 19:37:44 10° NE
Cosmos 2369 Rocket 4.4 19:28:49 10° N 19:32:26 17° NE 19:36:03 10° ENE
Cosmos 1980 3.8 19:29:46 10° S 19:35:15 55° ESE 19:40:46 10° NE
Cosmos 2056 Rocket 4.2 19:32:00 10° NNW 19:37:14 47° ENE 19:41:08 18° SE
Cosmos 2344 3.9 19:33:14 10° S 19:40:08 41° ESE 19:47:23 10° NE
Cosmos 967 Rocket 4.5 19:35:25 10° SSW 19:41:52 80° SE 19:48:22 10° NE
Aureole 2 Rocket 3.6 19:44:51 10° N 19:47:18 25° ENE 19:48:30 19° E
COSMOS 2428 3.3 19:41:51 10° SW 19:47:27 59° WNW 19:53:05 10° NNE
BREEZE-M DEB (TANK) 2.3 19:45:01 10° SW 19:48:18 38° SSE 19:48:31 37° SE
GEOS 3 Rocket 3.8 19:43:17 10° NE 19:48:43 84° NW 19:54:06 10° SW
Cosmos 2219 Rocket 3.1 19:45:26 10° SW 19:50:52 50° NW 19:56:21 10° NNE
CZ-4C R/B 4.2 19:45:17 10° NW 19:51:16 33° NNE 19:58:10 10° E
Cosmos 1680 Rocket 3.5 19:46:49 14° S 19:51:23 65° ESE 19:56:41 10° NNE
Cosmos 2237 Rocket 2.2 19:47:07 10° SSW 19:52:46 70° ESE 19:58:27 10° NNE
Genesis I 3.1 19:50:00 11° SSW 19:53:37 62° SE 19:57:28 10° NE
Cosmos 2058 2.8 19:56:39 20° S 19:59:26 89° E 20:03:36 10° N
Cosmos 2221 3.2 19:56:40 10° NNW 20:00:55 48° W 20:03:56 18° SSW
NOSS 3-4 (A) 3.9 19:56:30 10° NW 20:03:27 77° SW 20:08:47 22° SSE
NOSS 3-4 (C) 3.9 19:56:36 10° NW 20:03:33 78° SW 20:08:55 22° SSE
JB-3 4.1 20:02:23 10° NNE 20:06:16 85° ESE 20:08:23 25° S
Cosmos 923 Rocket 4.2 20:04:51 10° SSW 20:10:05 72° WNW 20:15:25 10° NNE
Cosmos 2333 Rocket 3.8 20:07:54 10° WSW 20:13:07 36° NW 20:18:23 10° NNE
Cosmos 1408 2.4 20:12:41 32° S 20:14:15 86° E 20:17:50 10° N
Iridium 2 3.6 20:12:13 10° N 20:16:03 82° E 20:17:38 34° S
COSMOS 2455 3.6 20:11:52 10° NNW 20:17:42 46° NE 20:22:32 15° ESE
Cosmos 1328 Rocket 4.4 20:17:31 10° N 20:21:33 37° ENE 20:23:24 25° ESE
Cosmos 1943 Rocket 3.2 20:16:16 10° NNW 20:21:37 40° NE 20:25:46 16° ESE
Cosmos 1892 3.5 20:20:17 18° SW 20:22:51 46° WNW 20:26:33 10° N
Cosmos 1766 Rocket 4.2 20:21:29 29° SE 20:23:04 41° E 20:27:14 10° NNE
EO 1 Del DPAF 3.7 20:20:10 10° NNE 20:23:47 44° E 20:24:46 35° SE
Spot 4 3.9 20:22:17 29° SSE 20:24:43 69° ENE 20:29:29 10° N
TIMED 4.4 20:23:38 26° SSW 20:26:04 80° ESE 20:30:27 10° NNE
Cosmos 2278 Rocket 3.3 20:21:53 10° NW 20:26:57 34° WSW 20:30:18 19° SSW
Cosmos 1624 Rocket 4.0 20:21:51 10° NNW 20:27:04 73° WSW 20:29:46 29° S
Cosmos 1346 Rocket 4.5 20:29:42 18° ESE 20:30:24 19° E 20:33:13 10° NE
ATLAS 2AS CENTAUR R/B 3.1 20:23:35 10° NW 20:31:00 59° WSW 20:35:07 26° S
Cosmos 1606 3.0 20:27:27 10° N 20:31:19 57° ENE 20:32:38 36° SE
Cosmos 2297 3.7 20:26:26 10° NNW 20:32:14 85° ENE 20:35:24 28° SSE
Okean 3 Rocket 3.6 20:33:52 34° SSE 20:35:40 63° E 20:40:03 10° NNE
Cosmos 1076 Rocket 4.4 20:33:32 16° SW 20:36:35 43° WNW 20:40:41 10° N
Cosmos 44 2.9 20:34:56 28° SSW 20:37:07 68° SE 20:41:33 10° NE
USA 215 3.2 20:30:54 10° NE 20:37:30 89° SSE 20:44:04 10° WSW
Cosmos 2151 2.9 20:35:56 33° S 20:37:51 88° E 20:42:08 10° N
SL-16 R/B 2.3 20:36:10 26° S 20:39:17 62° ESE 20:44:54 10° NNE
Cosmos 2218 Rocket 4.2 20:41:47 27° SSE 20:45:09 58° E 20:51:18 10° NNE
MOS 1-B Rocket 4.3 20:37:43 10° NNE 20:45:21 78° ESE 20:49:28 25° S
Cosmos 2366 rocket 4.3 20:43:19 28° SSE 20:46:39 57° E 20:52:51 10° NNE
BREEZE-M DEB (TANK) 1.3 20:43:46 10° WNW 20:47:27 61° SSW 20:47:27 61° SSW
Gbstr 26 Del rocket 2.9 20:51:07 44° SE 20:51:07 44° SE 20:54:57 10° ENE
Cosmos 371 Rocket 3.2 20:46:21 10° NNW 20:51:14 88° ENE 20:53:18 35° SSE
CREW DRAGON DEMO-1 DEB 3.2 20:49:55 10° W 20:52:58 64° NNW 20:56:01 10° ENE
Thor Agena Rocket 3.5 20:49:53 10° NNE 20:55:00 81° WNW 20:57:50 27° SSW
RESURS DK-1 3.8 20:54:37 10° NNW 20:58:21 31° NE 21:00:52 17° ESE
Meteor 2-12 Rocket 4.4 20:58:52 30° S 21:02:03 75° E 21:08:13 10° NNE
DELTA 2 R/B (1) 4.2 20:57:12 10° WSW 21:02:07 32° S 21:02:10 32° S
Cosmos 1151 Rocket 3.0 20:58:11 10° NNW 21:02:32 81° W 21:03:59 41° S
Cosmos 1340 2.6 21:03:05 50° SSE 21:03:53 70° E 21:07:40 10° NNE
Cosmos 1825 3.3 21:03:31 23° SW 21:05:19 37° WNW 21:08:53 10° N
Terra 4.1 21:03:06 10° WSW 21:05:47 15° W 21:08:28 10° NW
Lacrosse 5 rocket 1.7 21:04:17 10° NW 21:08:16 57° NNE 21:10:36 22° ESE
Cosmos 1420 Rocket 4.2 21:03:14 10° NNW 21:08:27 62° WSW 21:10:40 34° S
USA 267 3.4 21:07:06 27° SSE 21:10:41 58° SW 21:17:11 10° WNW
Cosmos 2341 Rocket 4.3 21:07:03 22° SSW 21:11:06 63° WNW 21:17:17 10° N
Cosmos 1408 Rocket 3.5 21:10:19 42° S 21:11:46 77° E 21:16:12 10° NNE
APEX 2.7 21:10:31 10° NW 21:12:55 56° W 21:12:55 56° W
Meteor 2-3 Rocket 3.7 21:14:20 33° S 21:17:01 80° E 21:22:46 10° NNE
Cosmos 2369 Rocket 2.3 21:11:57 10° NNW 21:17:34 68° ENE 21:20:40 27° SE
SL-8 Rocket 4.1 21:15:43 26° SSW 21:19:18 71° W 21:25:29 10° N
Aureole 2 Rocket 4.2 21:18:44 10° WNW 21:20:30 17° W 21:20:30 17° W
Cosmos 1500 Rocket 4.0 21:20:37 37° SE 21:21:51 49° E 21:26:05 10° NNE
Nimbus 7 Rocket 4.4 21:16:03 10° NNE 21:22:01 87° WNW 21:25:13 29° SSW
ALOS 2 2.8 21:23:21 40° SSW 21:24:44 61° W 21:29:06 10° NNW
Meteor 1-26 Rocket 4.4 21:23:26 10° NNW 21:29:25 72° W 21:32:10 33° S
Cosmos 304 Rocket 3.7 21:25:27 10° NNW 21:30:18 83° WSW 21:32:04 40° SSE
ISS -1.5 21:32:27 15° E 21:32:27 15° E 21:33:18 10° E
SL-4 R/B 2.9 21:31:34 23° NNW 21:31:34 23° NNW 21:32:32 10° NNW
Cosmos 1048 Rocket 4.0 21:29:20 37° S 21:31:24 67° ESE 21:36:37 10° NNE
Cosmos 1727 Rocket 4.0 21:27:37 10° N 21:33:53 81° W 21:37:00 32° S
Cosmos 44 Rocket 3.9 21:35:22 34° SE 21:36:07 37° ESE 21:40:29 10° NE
Cosmos 1633 2.4 21:36:19 60° SSW 21:36:55 89° WNW 21:40:33 10° N
GP-B 3.8 21:33:03 10° N 21:37:17 44° W 21:39:01 30° SW
Cosmos 2237 Rocket 4.2 21:32:37 10° W 21:37:21 26° NW 21:42:08 10° NNE
Cosmos 1805 Rocket 4.5 21:38:15 30° SE 21:39:27 37° E 21:43:27 10° NNE
CZ-4C R/B 3.0 21:33:40 10° NW 21:40:47 83° NE 21:47:45 16° SE
Cosmos 1452 Rocket 4.1 21:41:08 10° NW 21:46:07 44° WSW 21:47:54 33° SSW
Cosmos 1110 Rocket 4.0 21:41:13 10° NNW 21:46:32 83° ENE 21:49:01 33° SSE
Cosmos 1812 3.6 21:43:31 10° N 21:47:11 40° ENE 21:48:23 31° ESE
CZ-4 R/B 4.5 21:43:40 10° NNE 21:48:09 43° E 21:49:42 32° SE
Cosmos 405 3.2 21:46:28 10° NNW 21:49:57 53° W 21:50:19 50° SW
Cosmos 2263 4.2 21:45:09 10° NNW 21:50:56 88° ENE 21:53:57 30° SSE
Lacrosse 5 3.9 21:53:07 13° ESE 21:53:07 13° ESE 21:55:22 10° E
Cosmos 2344 4.3 21:47:00 10° WSW 21:54:17 55° NW 22:02:40 10° NE
Cosmos 1515 Rocket 4.3 21:51:30 10° NNW 21:55:34 40° W 21:56:48 32° SW
Cosmos 389 Rocket 3.9 21:55:17 10° N 21:58:26 30° ENE 21:59:35 24° ESE
SL-4 R/B 3.4 22:00:01 16° E 22:00:01 16° E 22:01:03 10° ENE
BREEZE-M DEB (TANK) 3.5 21:55:44 10° WSW 21:59:34 88° SSE 22:13:46 10° E
Meteor 1-27 Rocket 4.3 21:56:26 10° N 22:01:55 53° ENE 22:05:18 23° SE
COSMOS 2455 3.4 21:58:00 10° NW 22:03:35 41° WSW 22:05:38 31° SSW
Cosmos 1782 3.5 22:00:49 10° NNW 22:04:32 40° W 22:05:19 35° WSW
Cosmos 1943 Rocket 2.8 22:00:08 10° NW 22:05:23 40° WSW 22:07:16 31° SSW
Cosmos 1707 Rocket 4.1 22:01:46 10° N 22:06:09 53° ENE 22:08:00 31° SE
Cosmos 1346 Rocket 3.8 22:05:11 29° WSW 22:06:29 38° WNW 22:10:12 10° N
Cosmos 1302 Rocket 4.3 22:02:14 10° NNW 22:07:25 62° ENE 22:10:31 24° SE
Cosmos 292 Rocket 4.5 22:04:50 10° NNW 22:09:31 49° ENE 22:12:35 20° SE
CRYOSAT 2 4.3 22:05:15 10° N 22:10:08 82° E 22:12:00 38° S
Cosmos 1441 Rocket 4.4 22:10:44 28° SE 22:11:47 33° E 22:15:23 10° NNE
Cosmos 1943 3.1 22:11:29 34° SSW 22:14:04 79° ESE 22:19:46 10° NNE
Landsat 4 3.8 22:13:02 10° N 22:16:49 67° WNW 22:17:48 45° SW
Helios 1A 3.8 22:16:00 32° SW 22:16:51 36° W 22:20:43 10° NNW
USA 215 4.2 22:13:58 10° ENE 22:20:14 49° NNW 22:26:29 10° W
Sich 1 3.0 22:21:44 43° S 22:23:05 77° E 22:27:28 10° NNE
SL-16 R/B 3.9 22:18:56 10° WSW 22:23:50 29° NW 22:28:45 10° NNE
Cosmos 1633 Rocket 3.7 22:22:52 31° SE 22:24:28 45° E 22:28:40 10° NNE
Cosmos 2228 Rocket 4.0 22:22:39 10° NNW 22:26:52 37° W 22:28:13 30° SW
Cosmos 1862 Rocket 4.5 22:22:55 10° N 22:27:11 43° ENE 22:29:38 22° SE
CREW DRAGON DEMO-1 DEB 3.9 22:26:01 10° WNW 22:29:00 45° N 22:31:59 10° E
Resurs 1-4 Rocket 3.7 22:26:25 10° NE 22:30:50 26° E 22:33:54 16° SE
Helios 1B rocket 2.3 22:27:45 10° NNE 22:31:55 88° W 22:33:12 43° SSW
BREEZE-M DEB (TANK) 3.9 22:26:42 10° WSW 22:35:58 49° SSE 22:39:31 10° E
RESURS DK-1 3.2 22:32:40 10° NW 22:36:22 32° WSW 22:36:43 32° WSW
Gbstr 26 Del rocket 3.3 22:34:00 10° W 22:37:50 63° N 22:42:14 10° ENE
Cosmos 1821 Rocket 4.4 22:36:27 26° SW 22:39:45 53° WNW 22:45:43 10° N
Cosmos 494 Rocket 4.5 22:40:35 25° SW 22:43:25 52° WNW 22:48:27 10° NNE
Cosmos 2123 Rocket 4.0 22:37:26 10° NNW 22:43:37 70° W 22:46:53 29° S
Cosmos 1862 4.0 22:43:19 32° WSW 22:44:33 43° WNW 22:48:23 10° N
Lacrosse 5 rocket 2.6 22:43:52 10° WNW 22:46:11 23° WSW 22:46:11 23° WSW
MOZ.5/SAFIR/RUBIN 5/SL-8 4.2 22:44:50 21° SE 22:47:52 60° ENE 22:52:35 10° N
USA 32 4.2 22:46:20 31° SSW 22:48:46 63° W 22:54:01 10° N
Cosmos 1238 Rocket 3.8 22:51:38 26° S 22:54:53 67° E 22:59:53 10° NNE
Spot 1 4.4 22:52:23 26° SSE 22:55:16 86° ENE 23:00:05 10° NNW
Cosmos 1607 3.9 22:53:47 28° SSW 22:57:16 79° SE 23:03:37 10° NE
Cosmos 1656 Rocket 4.2 22:54:39 10° NW 22:59:40 40° WSW 23:01:40 29° SSW
Meteor 2-20 Rocket 4.5 22:53:40 10° NNW 22:59:46 68° W 23:03:16 27° S
Cosmos 1933 Rocket 4.4 22:57:42 23° SSE 22:59:55 41° E 23:04:00 10° NNE
Cosmos 1666 Rocket 3.6 22:58:28 35° SSW 23:00:13 66° W 23:04:36 10° N
Cosmos 2369 Rocket 3.6 22:56:54 10° NW 23:01:02 21° W 23:02:26 19° WSW
ATLAS 5 CENTAUR R/B 3.3 22:59:49 10° NNW 23:02:35 45° NE 23:09:50 10° ESE
Iridium 4 Rocket 3.7 22:59:44 27° S 23:03:04 89° E 23:08:39 10° N
ISS -3.7 23:05:21 28° W 23:06:59 75° NNW 23:10:21 10° ENE
Cosmos 1605 Rocket 4.0 23:05:45 26° SSW 23:09:30 78° W 23:15:49 10° N
CZ-2D R/B 2.6 23:05:41 10° NNE 23:10:53 52° E 23:14:15 22° S
Okean 1 3.9 23:09:22 10° N 23:13:16 52° ENE 23:15:53 19° SSE
IRAS Rocket 4.2 23:11:50 24° S 23:15:15 71° WSW 23:20:46 10° NNW
Meteor 1-29 3.8 23:12:21 10° N 23:15:33 39° WNW 23:16:36 30° WSW
Cosmos 44 Rocket 4.3 23:14:03 15° WSW 23:17:37 40° NW 23:22:08 10° NNE
SeaSat 1 2.7 23:13:58 10° NE 23:18:52 58° ESE 23:21:34 26° S
Cosmos 2251 Rocket 3.7 23:18:10 26° S 23:21:06 66° ESE 23:26:19 10° NNE
SL-16 R/B 2.5 23:20:24 17° SSE 23:25:25 83° WSW 23:31:44 10° NNW
Cosmos 1992 Rocket 3.9 23:20:23 10° NNW 23:25:39 75° WSW 23:29:35 18° SSE
SAR-Lupe-3 4.5 23:24:10 10° NNE 23:27:47 90° SSE 23:29:18 33° SSW
CZ-4C R/B 3.8 23:22:48 10° WNW 23:29:02 30° WSW 23:32:51 21° SSW
Meteor 1-4 Rocket 2.6 23:25:31 10° NNW 23:29:14 61° W 23:30:44 32° SSW
SL-4 R/B 2.7 23:29:55 21° W 23:30:59 27° NW 23:33:27 10° NNE
Cosmos 389 Rocket 4.2 23:30:26 10° NW 23:32:57 19° W 23:33:24 18° W
SL-24 DEB 4.5 23:28:58 10° N 23:33:36 58° W 23:36:13 25° SSW
Lacrosse 5 2.0 23:32:17 25° SSW 23:35:08 63° SE 23:40:11 10° ENE
AQUA 4.2 23:31:10 10° NNE 23:35:54 59° E 23:39:09 20° S
NPP 3.7 23:31:58 10° NNE 23:37:24 75° ESE 23:41:09 20° S
Abrixas rocket 1.8 23:42:02 38° SW 23:42:54 63° SSE 23:45:47 10° E
Cosmos 2173 Rocket 4.1 23:40:01 17° S 23:45:00 79° E 23:51:21 10° NNE
Cosmos 1602 3.6 23:43:14 27° SSW 23:45:15 81° W 23:49:07 10° N
Cosmos 1437 Rocket 3.7 23:42:36 10° N 23:46:34 48° ENE 23:50:26 10° SSE
Meteor 1-25 Rocket 4.3 23:44:32 22° SSW 23:48:16 67° WNW 23:53:52 10° N
NOSS 2-1 (E) 4.4 23:44:18 10° NW 23:49:29 88° NE 23:56:48 10° SE
ATLAS 5 CENTAUR R/B 4.5 23:46:30 10° NNW 23:51:01 27° NNE 23:56:08 10° E
Cosmos 1470 Rocket 4.3 23:50:45 21° SW 23:53:16 41° WNW 23:57:33 10° N
Meteor 1-18 Rocket 4.3 23:48:13 10° NNW 23:54:03 68° W 23:58:53 15° S
